Dewpoint
49 49 49 47 45 43 44 43 43 43 40 39 40 41 40 40 20 24 30 33 34 33 28 14 8 10 9 3 10 28 7 7 11 11 11 7 2 1 4 -1 -0 4 6 14 20
47 47 47 47 46 45 44 43 43 42 41 40 40 38 37 37 11 6 27 33 32 30 13 11 5 6 1 2 4 9 5 8 7 6 3 5 4 3 2 2 0 4 10 17 19
46 46 46 46 45 44 42 43 42 41 40 39 39 40 36 32 -3 4 25 30 29 24 17 13 9 3 -1 3 4 1 -8 1 2 6 6 3 4 5 3 2 1 2 10 17 18
45 45 45 45 45 42 41 42 39 40 38 39 36 34 28 11 -12 7 25 27 25 19 14 9 3 -2 -1 -3 6 -2 6 5 4 7 7 4 5 5 4 3 5 6 13 15 16
46 45 44 44 44 42 40 39 37 36 37 38 39 30 1 -6 3 9 21 19 13 14 12 10 4 2 -5 2 4 0 1 4 7 10 7 9 5 6 7 7 7 12 15 13 12
44 45 44 43 42 41 39 38 34 34 36 38 37 17 -4 -8 2 8 13 12 12 13 12 11 7 8 5 4 0 4 4 6 8 4 6 6 6 6 5 7 9 11 13 12 11
43 45 43 41 40 38 38 37 35 36 41 39 35 8 2 -2 8 11 13 12 13 11 12 13 13 2 6 1 6 5 2 -1 3 3 6 7 2 4 7 7 8 9 11 11 11
44 42 43 41 40 39 38 38 38 41 40 38 29 4 -1 9 12 13 13 11 13 12 12 14 14 6 5 7 0 -3 -3 -14 -1 4 6 6 -5 4 8 7 7 7 10 11 12
44 41 39 39 39 38 38 37 35 34 27 21 4 -5 -7 10 9 14 14 11 12 11 13 10 6 5 5 -3 -10 -3 -15 -3 -4 5 4 3 -1 3 6 4 3 5 8 10 11
42 41 41 41 40 42 42 36 32 17 12 9 5 6 2 4 11 13 14 14 10 8 8 2 3 -3 3 -6 -15 -10 -4 -2 -4 -2 5 3 3 6 8 8 7 6 6 9 10
42 41 41 41 42 38 29 21 18 7 10 1 2 1 4 11 14 10 15 11 10 8 2 3 -6 -9 0 4 1 1 2 0 2 1 5 6 8 8 8 9 9 7 6 8 9
42 42 41 41 41 34 23 18 21 15 5 10 9 6 9 14 4 9 13 3 4 1 1 -7 -5 0 4 5 2 4 1 -4 1 4 7 8 7 7 3 7 7 6 6 8 8
43 42 41 40 36 24 25 25 29 27 10 9 10 6 7 9 5 9 10 10 4 4 0 -7 -2 4 2 1 1 1 -4 1 2 6 9 8 1 4 4 5 6 7 8 7 4
42 40 40 35 22 23 18 27 29 30 17 15 7 6 8 9 2 14 11 8 2 2 6 -1 3 4 1 -1 4 -4 4 5 6 7 -6 6 -21 0 5 4 6 7 5 5 6
41 40 38 30 24 16 22 28 28 32 14 13 7 8 9 3 4 8 12 7 -4 3 2 -1 3 3 -2 -0 6 -3 6 7 9 7 3 3 -5 -13 1 1 3 6 6 5 8
43 41 31 25 24 27 30 30 30 24 15 10 7 5 3 4 5 11 6 8 10 7 3 6 7 6 4 7 8 7 2 2 6 3 -14 1 -6 -17 -10 0 1 2 5 6 8
42 40 26 26 15 29 31 27 23 18 14 13 6 5 3 3 4 9 5 1 -3 4 0 -1 5 7 8 2 4 3 -7 -14 -10 -16 -22 1 -4 -11 -3 0 1 2 3 5 10
41 35 29 27 29 31 30 26 19 13 10 7 3 7 4 6 5 6 4 -0 7 -1 -4 -5 4 1 8 4 -1 4 -8 -15 -15 -19 -17 -1 -15 -18 -2 1 3 7 8 11 9
35 30 25 23 28 30 29 20 17 13 5 4 9 10 10 5 6 1 4 4 7 7 0 -5 -1 8 10 10 4 1 -4 2 -7 -1 -7 -10 -7 -9 -3 -4 0 2 4 5 2
28 25 26 26 28 31 21 16 12 9 5 4 11 6 11 4 10 2 2 8 7 11 8 5 -2 4 10 11 11 3 7 -7 -5 -17 -16 -18 -13 -17 -16 -14 -2 1 1 -0 3
30 31 32 27 29 22 21 14 11 11 9 4 3 4 5 5 4 2 2 7 10 11 12 8 2 3 7 7 3 7 2 1 -2 -7 -15 -17 -11 -6 -12 -11 -9 -5 0 2 7
32 33 31 30 26 16 16 11 13 8 10 8 8 5 -2 4 2 2 2 4 11 12 4 12 8 -1 -1 11 4 5 1 -2 -8 -8 -3 -6 -7 1 1 -1 -1 0 3 7 11
31 31 37 31 28 23 11 10 11 9 9 6 6 7 10 3 10 3 4 11 11 8 6 12 5 3 10 10 11 7 3 -1 2 1 -2 -3 -6 -1 -4 -3 2 5 9 10 8
34 32 32 25 24 20 15 14 12 10 8 7 5 7 5 5 5 5 2 9 11 8 16 11 4 -1 6 9 -0 1 5 3 2 1 -1 -1 -3 -0 2 4 8 10 9 7 8
32 28 27 31 27 20 20 16 15 15 8 8 6 5 5 7 3 4 3 5 11 10 19 14 4 7 6 5 6 5 5 5 4 2 -1 -2 -2 -1 3 8 9 8 6 7 8
28 28 25 21 16 17 20 21 17 12 10 10 10 9 6 7 12 12 1 1 3 13 15 12 6 9 5 5 6 5 7 8 6 6 5 5 5 7 9 6 1 4 6 7 8
29 36 30 27 19 23 27 25 19 13 14 11 11 8 8 8 8 7 5 5 6 7 11 10 8 6 2 3 4 7 4 6 5 5 5 0 1 -2 -2 1 0 4 7 8 8
Wind_Speed
9 8 8 8 8 8 9 10 12 12 12 11 8 5 4 5 9 24 30 21 19 27 18 9 10 8 9 7 8 2 5 2 2 2 4 4 7 4 5 3 5 5 4 6 8
9 8 7 6 7 9 9 10 11 12 12 11 10 7 4 2 4 22 23 26 24 26 12 14 10 11 7 6 7 6 4 1 2 1 4 8 3 6 3 6 2 2 5 7 6
9 8 7 7 7 8 9 10 11 12 12 14 14 9 6 3 4 11 30 27 25 24 2 6 3 6 8 5 9 4 4 1 1 1 2 6 7 2 3 4 8 6 7 6 4
8 8 8 7 7 8 10 10 11 12 13 15 17 10 9 2 4 10 29 24 20 19 10 17 9 6 6 7 5 4 1 1 2 2 5 6 6 4 5 9 4 5 10 7 7
8 8 8 7 7 8 9 10 11 13 14 16 16 5 3 10 7 10 26 19 12 14 22 7 18 5 6 4 2 4 3 4 4 4 7 8 14 7 12 14 7 8 8 7 5
11 10 7 6 6 8 9 9 10 13 15 16 18 5 7 17 10 10 19 10 16 13 18 20 8 6 7 4 4 4 5 9 2 8 9 8 10 5 5 1 7 10 10 9 7
12 11 9 8 8 8 8 9 11 14 14 11 10 5 22 9 3 12 15 5 8 7 9 7 5 8 2 3 9 5 8 6 3 8 4 7 12 7 6 6 8 8 8 9 8
11 10 9 9 8 8 9 9 11 14 11 9 5 5 7 3 4 12 15 3 11 5 3 7 5 9 7 7 6 7 5 11 1 8 5 5 12 5 8 1 9 9 11 11 11
13 10 11 10 9 9 11 11 10 12 8 6 4 5 4 4 8 10 8 8 9 5 10 6 7 7 11 6 5 13 11 5 11 1 9 9 21 11 14 18 22 15 15 14 13
14 11 11 12 12 12 13 6 8 7 9 3 5 3 7 9 8 10 7 9 5 7 4 11 8 7 10 21 14 13 9 8 13 11 9 20 24 25 21 17 21 16 16 16 14
16 12 12 11 12 15 5 3 2 4 17 9 4 2 5 12 4 18 8 7 5 10 8 8 19 14 9 3 3 10 8 14 10 8 20 8 24 28 21 9 10 12 13 14 10
14 15 13 12 10 8 5 6 2 3 12 6 3 2 3 4 7 22 13 7 9 10 6 5 8 5 7 2 13 5 5 9 18 2 13 15 31 12 7 6 4 8 11 12 5
14 15 15 13 4 8 10 6 2 1 5 3 3 3 5 6 6 16 12 5 9 8 10 6 1 7 2 3 18 6 5 7 10 16 1 18 8 7 4 5 2 1 4 5 6
15 16 16 8 4 2 4 3 4 1 3 11 7 5 4 2 5 4 7 3 6 5 4 4 3 6 4 4 9 8 2 14 14 8 7 11 12 7 6 9 5 5 9 10 8
15 16 11 12 6 4 1 5 3 1 1 7 4 3 5 8 8 7 8 7 5 4 3 3 6 7 3 4 3 9 19 12 1 1 3 8 3 9 6 7 12 15 17 13 11
14 15 7 5 5 1 4 4 1 2 4 5 3 7 5 7 6 10 9 10 1 2 4 1 1 2 4 8 3 18 4 3 3 2 3 1 6 12 5 5 6 8 14 15 15
14 11 7 2 2 4 3 2 2 6 3 7 5 7 4 8 5 11 8 16 11 12 14 7 1 1 5 7 3 13 10 10 10 9 7 2 4 21 14 14 13 18 15 14 16
14 3 5 3 2 2 2 2 7 1 3 3 4 6 5 11 5 9 3 6 8 5 3 9 8 5 6 3 3 8 6 3 8 9 15 6 9 10 7 9 11 11 13 14 18
4 3 2 5 2 2 2 7 1 1 2 7 5 4 4 3 4 6 5 2 1 3 7 4 7 2 4 2 0 2 8 1 2 1 4 7 11 19 8 15 19 22 15 20 20
2 2 3 3 1 2 6 3 2 1 2 3 4 3 5 8 8 9 5 4 3 2 1 2 9 1 3 2 8 2 9 1 4 7 12 10 11 18 15 15 14 18 20 22 28
3 3 2 2 1 8 5 2 1 1 1 3 0 3 2 4 3 4 3 2 3 4 5 5 1 2 1 7 7 4 3 5 4 4 5 10 23 14 22 19 17 19 18 27 30
3 4 4 2 4 4 3 1 3 3 1 1 2 3 2 1 3 3 4 5 9 9 1 4 3 10 4 1 2 3 5 7 4 5 5 2 21 11 19 19 16 22 25 25 24
4 3 3 3 3 3 1 1 2 2 2 3 3 3 4 3 4 4 4 1 9 6 4 7 1 14 6 0 1 6 6 5 6 4 16 7 19 5 9 13 19 24 23 22 29
3 4 5 8 3 3 2 1 2 2 2 3 2 3 2 4 7 4 4 4 9 4 6 7 3 10 17 18 2 9 9 13 9 8 8 24 36 44 34 30 35 30 23 26 31
5 1 1 5 5 2 1 2 2 3 2 4 3 10 6 4 3 6 6 2 4 6 5 3 8 8 22 32 25 30 25 21 29 20 17 17 21 38 40 36 36 32 27 35 35
1 1 2 2 1 1 2 6 6 4 7 5 8 5 13 9 9 7 4 5 4 4 6 2 6 3 16 10 8 20 26 26 30 30 30 46 53 42 41 22 25 28 32 34 34
1 2 1 2 3 3 5 5 5 5 7 4 9 5 11 20 10 4 5 2 6 9 12 6 4 6 11 8 22 13 14 22 11 15 17 24 31 7 24 27 29 34 33 32 34
Wind_Direction
48 47 47 46 43 40 34 26 16 15 19 26 22 11 6 7 38 34 33 352 344 341 337 328 26 20 42 56 36 50 61 48 280 290 309 348 347 336 329 290 6 18 76 129 134
41 39 39 35 29 26 19 5 359 3 6 5 354 342 343 42 46 39 355 350 347 348 355 18 19 25 56 29 22 57 79 243 226 333 295 303 308 305 326 330 245 101 71 101 93
35 31 30 25 18 12 6 357 356 359 3 358 349 331 323 145 65 347 343 345 349 348 304 1 37 53 64 22 13 32 74 288 312 287 274 299 307 220 283 273 233 223 176 152 121
29 25 20 13 7 3 360 356 354 0 2 2 6 97 85 40 52 324 342 343 349 356 55 29 34 53 62 51 355 71 58 266 320 16 329 284 299 279 252 265 274 159 167 176 170
26 14 5 2 3 358 357 355 6 11 7 4 7 6 33 49 27 301 339 343 353 10 38 45 46 48 62 58 53 57 315 314 327 343 310 288 281 274 275 295 221 157 160 170 165
22 26 24 25 11 358 354 0 5 356 354 358 1 30 64 65 274 306 340 351 15 21 32 42 43 66 88 60 50 314 307 321 351 15 15 332 302 339 269 180 148 176 186 188 169
27 33 42 35 8 356 352 346 340 343 343 348 5 74 60 52 297 328 348 346 357 14 31 28 23 74 53 73 354 356 348 1 45 7 18 352 296 233 260 359 193 219 214 193 189
17 24 25 13 4 0 349 341 333 336 335 342 30 68 85 282 312 351 350 342 355 10 39 6 52 86 47 324 26 24 59 358 37 7 348 8 292 275 321 45 255 259 235 221 212
23 21 16 9 0 351 340 324 328 340 351 359 32 64 47 336 11 347 20 348 321 25 36 44 57 62 16 21 26 26 319 311 311 139 353 33 299 282 286 289 277 263 231 226 227
19 14 1 359 355 341 327 317 334 22 353 62 76 48 28 335 315 339 342 0 9 337 19 33 48 60 27 31 5 323 328 305 297 325 332 303 281 294 298 279 267 267 250 225 228
15 6 359 351 350 344 360 32 14 360 34 63 28 76 329 317 300 360 348 349 19 55 30 17 44 24 359 1 242 277 264 287 284 317 341 317 307 306 313 326 267 262 239 223 234
6 4 355 348 355 17 62 73 74 137 82 34 54 10 313 334 356 358 7 50 41 47 348 35 46 333 314 175 328 302 316 333 304 272 336 314 311 305 339 340 278 263 216 221 219
1 357 349 340 353 37 74 88 350 155 78 26 46 20 340 17 42 350 17 24 47 47 36 85 42 317 351 337 355 332 343 332 303 318 352 323 297 323 309 348 351 266 187 189 217
2 359 355 352 68 23 57 349 1 22 88 355 359 15 351 82 38 354 10 38 37 43 43 71 335 350 341 6 10 327 162 326 307 348 328 8 306 297 291 303 243 228 211 220 246
0 1 11 44 121 58 1 331 342 55 181 347 1 314 9 64 314 17 30 37 58 9 3 357 360 350 354 353 335 270 331 306 248 115 5 353 311 273 291 278 248 236 234 237 266
359 357 13 30 58 19 324 333 46 77 1 345 347 354 10 29 20 322 11 40 56 106 51 59 57 25 313 316 280 298 339 109 83 65 322 269 26 283 264 233 259 254 256 243 272
353 0 38 35 56 330 358 45 27 60 354 336 339 2 12 347 17 21 35 35 27 3 3 338 62 26 12 333 334 356 4 342 356 351 294 166 301 256 265 252 264 273 271 253 275
347 35 40 60 11 30 56 59 56 324 337 358 337 331 14 7 27 13 49 40 39 35 20 360 325 16 359 67 322 23 44 61 301 306 298 329 244 278 244 269 257 253 255 271 284
1 26 56 355 14 67 83 45 116 253 310 340 332 346 350 12 354 1 46 75 350 37 16 335 273 100 43 111 111 5 51 162 196 64 298 266 283 288 274 272 253 256 269 284 313
41 38 14 334 50 84 63 102 183 34 28 10 1 18 323 331 350 8 360 169 161 137 143 190 293 117 156 113 45 85 142 63 36 317 305 286 281 259 280 284 260 260 273 293 304
45 15 334 350 48 51 68 109 162 96 71 37 320 297 267 319 328 323 296 217 185 145 94 144 210 286 103 201 185 150 151 84 114 165 241 298 290 230 253 273 272 271 283 295 296
33 339 347 342 32 46 78 134 143 169 100 122 123 166 212 249 264 259 258 228 164 153 158 173 168 274 258 167 151 138 190 165 176 230 227 226 271 256 249 267 275 281 287 287 286
17 305 351 9 75 51 175 172 186 168 216 184 207 222 197 223 299 232 242 111 156 162 172 172 244 311 316 210 347 221 191 162 110 99 223 204 272 243 264 277 277 289 297 300 307
26 343 2 55 49 97 156 208 226 208 204 185 175 147 190 244 228 273 249 189 188 190 148 154 203 233 256 277 104 252 202 196 179 212 216 225 287 298 301 308 312 311 306 304 311
28 72 125 344 13 61 130 187 220 251 221 194 234 222 197 267 246 239 236 197 176 200 134 188 252 230 264 268 268 268 258 215 217 218 228 282 259 277 290 300 303 307 310 316 309
21 159 54 144 119 177 215 221 216 218 185 222 226 205 201 228 224 278 201 214 240 157 169 176 273 306 287 272 247 266 253 233 229 244 251 258 273 276 276 291 303 308 313 310 309
129 75 133 192 167 180 228 203 215 178 207 209 206 199 228 246 256 265 227 191 196 175 195 189 252 333 281 317 306 284 245 200 197 210 216 255 268 300 301 307 311 310 310 304 308